TimePDT,TemperatureF,Dew PointF,Humidity,Sea Level PressureIn,VisibilityMPH,Wind Direction,Wind SpeedMPH,Gust SpeedMPH,PrecipitationIn,Events,Conditions,WindDirDegrees,DateUTC
12:00 AM,46.6,43.0,87,30.29,-9999.0,SE,12.7,-,0.02,,Unknown,130,2012-10-26 07:00:00
1:00 AM,46.6,42.6,86,30.28,-9999.0,ESE,19.6,-,0.02,,Unknown,120,2012-10-26 08:00:00
2:00 AM,46.8,42.6,85,30.26,-9999.0,ESE,18.4,-,N/A,,Unknown,120,2012-10-26 09:00:00
3:00 AM,46.6,42.6,86,30.25,-9999.0,SE,11.5,-,N/A,,Unknown,130,2012-10-26 10:00:00
4:00 AM,46.4,42.3,85,30.22,-9999.0,SE,12.7,18.4,N/A,,Unknown,130,2012-10-26 11:00:00
5:00 AM,46.2,41.9,85,30.20,-9999.0,SE,12.7,-,0.01,,Unknown,130,2012-10-26 12:00:00
6:00 AM,46.2,41.7,84,30.18,-9999.0,SE,12.7,19.6,N/A,,Unknown,130,2012-10-26 13:00:00
8:00 AM,45.5,42.8,90,30.15,-9999.0,ESE,17.3,-,0.04,,Unknown,120,2012-10-26 15:00:00
9:00 AM,45.7,42.6,89,30.16,-9999.0,ESE,17.3,-,0.05,,Unknown,110,2012-10-26 16:00:00
11:00 AM,46,42,80,30.15,,East,16.1,,,,,100,2012-10-26 18:00:00
11:00 AM,46.2,41.9,85,30.15,-9999.0,East,16.1,-,0.03,,Unknown,100,2012-10-26 18:00:00
12:00 PM,46.8,41.7,83,30.13,-9999.0,ESE,19.6,-,0.02,,Unknown,110,2012-10-26 19:00:00
1:00 PM,46.4,41.9,84,30.11,-9999.0,ESE,19.6,-,N/A,,Unknown,110,2012-10-26 20:00:00
2:00 PM,46.6,42.4,85,30.10,-9999.0,ESE,18.4,-,N/A,,Unknown,120,2012-10-26 21:00:00
3:00 PM,46.9,42.4,84,30.06,-9999.0,ESE,19.6,-,0.01,,Unknown,120,2012-10-26 22:00:00
4:00 PM,46.8,41.7,83,30.05,-9999.0,ESE,21.9,-,N/A,,Unknown,120,2012-10-26 23:00:00
5:00 PM,47,42,76,30.05,,ESE,19.6,,,,,120,2012-10-27 00:00:00
5:00 PM,46.6,41.9,84,30.05,-9999.0,ESE,19.6,-,N/A,,Unknown,120,2012-10-27 00:00:00
6:00 PM,46.0,42.4,87,30.04,-9999.0,ESE,19.6,-,N/A,,Unknown,120,2012-10-27 01:00:00
7:00 PM,46.0,43.5,91,30.05,-9999.0,ESE,17.3,-,0.01,,Unknown,110,2012-10-27 02:00:00
8:00 PM,45.7,43.2,91,30.05,-9999.0,ESE,16.1,-,N/A,,Unknown,110,2012-10-27 03:00:00
9:00 PM,45.5,43.2,92,30.02,-9999.0,East,13.8,-,0.01,,Unknown,100,2012-10-27 04:00:00
10:00 PM,45.3,43.2,92,30.01,-9999.0,ESE,16.1,-,0.01,,Unknown,110,2012-10-27 05:00:00
11:00 PM,46,43,85,30.00,,ESE,16.1,,,,,110,2012-10-27 06:00:00
11:00 PM,45.7,43.0,90,30.00,-9999.0,ESE,16.1,-,N/A,,Unknown,110,2012-10-27 06:00:00